When you browse on this site, cookies collect data to enhance your experience and personalize the content and advertising you see.
Visit our Privacy Policy to learn more. By continuing to use the site, you agree to this use of cookies and data.
  • In Latvia
  • List of Countries
  • For 7 days
  • Water Temperature
  • Weather Map
  • Weather Widgets
  • user-avatar
    Login

    Hourly Weather Berat

    Today, 1 June, Monday

    Time Temperature Precipitation Wind Pressure Humidity
    00:00 +13°C° 0 mm 1 mps 742 mmHg 89%
    01:00 +13°C° 0 mm 1 mps 742 mmHg 89%
    02:00 +12°C° 0.3 mm 0 mps 742 mmHg 90%
    03:00 +12°C° 0.3 mm 0 mps 742 mmHg 90%
    04:00 +12°C° 0.3 mm 0 mps 742 mmHg 91%
    05:00 +14°C° 0.3 mm 1 mps 742 mmHg 87%
    06:00 +15°C° 0.3 mm 1 mps 742 mmHg 83%
    07:00 +16°C° 0.3 mm 1 mps 742 mmHg 78%
    08:00 +17°C° 0.1 mm 2 mps 742 mmHg 72%
    09:00 +18°C° 0.1 mm 2 mps 742 mmHg 66%
    10:00 +19°C° 0.1 mm 2 mps 742 mmHg 60%
    11:00 +19°C° 0.2 mm 3 mps 742 mmHg 60%
    12:00 +20°C° 0.2 mm 3 mps 742 mmHg 59%
    13:00 +20°C° 0.2 mm 3 mps 741 mmHg 59%
    14:00 +20°C° 0.2 mm 3 mps 741 mmHg 60%
    15:00 +20°C° 0.2 mm 3 mps 741 mmHg 61%
    16:00 +20°C° 0.2 mm 3 mps 741 mmHg 63%
    17:00 +18°C° 0 mm 3 mps 741 mmHg 69%
    18:00 +17°C° 0 mm 2 mps 741 mmHg 74%
    19:00 +16°C° 0 mm 2 mps 741 mmHg 80%
    20:00 +15°C° 0 mm 1 mps 741 mmHg 82%
    21:00 +14°C° 0 mm 1 mps 741 mmHg 85%
    22:00 +14°C° 0 mm 1 mps 742 mmHg 87%
    23:00 +13°C° 0 mm 1 mps 741 mmHg 87%

    Tomorrow, 2 June, Tuesday

    Time Temperature Precipitation Wind Pressure Humidity
    00:00 +13°C° 0 mm 1 mps 741 mmHg 86%
    01:00 +13°C° 0 mm 1 mps 741 mmHg 86%
    02:00 +13°C° 0 mm 1 mps 741 mmHg 86%
    03:00 +13°C° 0 mm 1 mps 741 mmHg 85%
    04:00 +13°C° 0 mm 1 mps 741 mmHg 85%
    05:00 +14°C° 0 mm 1 mps 741 mmHg 79%
    06:00 +16°C° 0 mm 1 mps 741 mmHg 73%
    07:00 +19°C° 0 mm 1 mps 741 mmHg 67%
    08:00 +20°C° 0 mm 1 mps 741 mmHg 62%
    09:00 +21°C° 0 mm 2 mps 741 mmHg 58%
    10:00 +23°C° 0 mm 2 mps 741 mmHg 54%
    11:00 +22°C° 0 mm 3 mps 741 mmHg 54%
    12:00 +24°C° 0 mm 3 mps 740 mmHg 54%
    13:00 +23°C° 0 mm 4 mps 740 mmHg 54%
    14:00 +22°C° 0.1 mm 4 mps 740 mmHg 56%
    15:00 +22°C° 0.1 mm 4 mps 740 mmHg 58%
    16:00 +21°C° 0.1 mm 4 mps 740 mmHg 60%
    17:00 +19°C° 0 mm 3 mps 740 mmHg 68%
    18:00 +18°C° 0 mm 2 mps 739 mmHg 76%
    19:00 +16°C° 0 mm 1 mps 739 mmHg 83%
    20:00 +16°C° 0 mm 1 mps 740 mmHg 85%
    21:00 +15°C° 0 mm 1 mps 740 mmHg 87%
    22:00 +13°C° 0 mm 0 mps 740 mmHg 88%
    23:00 +14°C° 0 mm 1 mps 740 mmHg 88%

    Day after tomorrow, 3 June, Wednesday

    Time Temperature Precipitation Wind Pressure Humidity
    00:00 +14°C° 0 mm 1 mps 740 mmHg 87%
    01:00 +14°C° 0 mm 1 mps 740 mmHg 86%
    02:00 +14°C° 0 mm 1 mps 740 mmHg 84%
    03:00 +13°C° 0 mm 1 mps 740 mmHg 82%
    04:00 +13°C° 0 mm 1 mps 740 mmHg 80%
    05:00 +15°C° 0 mm 1 mps 740 mmHg 74%
    06:00 +18°C° 0 mm 1 mps 740 mmHg 69%
    07:00 +20°C° 0 mm 1 mps 740 mmHg 63%
    08:00 +21°C° 0 mm 1 mps 740 mmHg 60%
    09:00 +22°C° 0 mm 1 mps 740 mmHg 56%
    10:00 +23°C° 0 mm 2 mps 740 mmHg 53%
    11:00 +24°C° 0 mm 2 mps 740 mmHg 52%
    12:00 +24°C° 0 mm 3 mps 740 mmHg 51%
    13:00 +25°C° 0 mm 4 mps 740 mmHg 50%
    14:00 +23°C° 0.1 mm 4 mps 740 mmHg 52%
    15:00 +24°C° 0.1 mm 3 mps 740 mmHg 55%
    16:00 +22°C° 0.1 mm 3 mps 740 mmHg 57%
    17:00 +21°C° 0 mm 3 mps 740 mmHg 62%
    18:00 +19°C° 0 mm 2 mps 740 mmHg 67%
    19:00 +18°C° 0 mm 1 mps 740 mmHg 72%
    20:00 +16°C° 0 mm 1 mps 741 mmHg 72%
    21:00 +16°C° 0 mm 1 mps 741 mmHg 73%
    22:00 +15°C° 0 mm 1 mps 742 mmHg 73%
    23:00 +15°C° 0 mm 1 mps 742 mmHg 72%

    4 June, Thursday

    Time Temperature Precipitation Wind Pressure Humidity
    00:00 +15°C° 0 mm 1 mps 742 mmHg 71%
    01:00 +15°C° 0 mm 1 mps 742 mmHg 69%
    02:00 +15°C° 0 mm 1 mps 742 mmHg 68%
    03:00 +14°C° 0 mm 2 mps 742 mmHg 66%
    04:00 +14°C° 0 mm 2 mps 742 mmHg 64%
    05:00 +16°C° 0 mm 2 mps 742 mmHg 60%
    06:00 +19°C° 0 mm 1 mps 742 mmHg 57%
    07:00 +21°C° 0 mm 1 mps 742 mmHg 53%
    08:00 +23°C° 0 mm 1 mps 743 mmHg 50%
    09:00 +24°C° 0 mm 1 mps 743 mmHg 47%
    10:00 +26°C° 0 mm 1 mps 743 mmHg 44%
    11:00 +26°C° 0 mm 2 mps 743 mmHg 44%
    12:00 +27°C° 0 mm 3 mps 743 mmHg 43%
    13:00 +27°C° 0 mm 3 mps 743 mmHg 43%
    14:00 +27°C° 0 mm 3 mps 743 mmHg 44%
    15:00 +27°C° 0 mm 4 mps 743 mmHg 45%
    16:00 +26°C° 0 mm 4 mps 743 mmHg 45%
    17:00 +24°C° 0 mm 3 mps 743 mmHg 53%
    18:00 +21°C° 0 mm 2 mps 743 mmHg 61%
    19:00 +19°C° 0 mm 2 mps 743 mmHg 68%
    20:00 +19°C° 0 mm 2 mps 743 mmHg 69%
    21:00 +18°C° 0 mm 2 mps 744 mmHg 70%
    22:00 +18°C° 0 mm 2 mps 744 mmHg 71%
    23:00 +17°C° 0 mm 2 mps 744 mmHg 70%

    5 June, Friday

    Time Temperature Precipitation Wind Pressure Humidity
    00:00 +17°C° 0 mm 2 mps 744 mmHg 69%
    01:00 +17°C° 0 mm 2 mps 744 mmHg 68%
    02:00 +17°C° 0 mm 2 mps 744 mmHg 67%
    03:00 +16°C° 0 mm 2 mps 744 mmHg 66%
    04:00 +16°C° 0 mm 2 mps 744 mmHg 66%
    05:00 +18°C° 0 mm 2 mps 744 mmHg 62%
    06:00 +20°C° 0 mm 2 mps 745 mmHg 58%
    07:00 +23°C° 0 mm 2 mps 745 mmHg 54%
    08:00 +24°C° 0 mm 2 mps 745 mmHg 49%
    09:00 +26°C° 0 mm 2 mps 746 mmHg 44%
    10:00 +27°C° 0 mm 2 mps 746 mmHg 40%
    11:00 +28°C° 0 mm 3 mps 746 mmHg 40%
    12:00 +28°C° 0 mm 3 mps 746 mmHg 40%
    13:00 +29°C° 0 mm 4 mps 746 mmHg 40%
    14:00 +28°C° 0 mm 3 mps 746 mmHg 43%
    15:00 +27°C° 0 mm 3 mps 746 mmHg 47%
    16:00 +27°C° 0 mm 2 mps 745 mmHg 51%
    17:00 +25°C° 0 mm 2 mps 745 mmHg 55%
    18:00 +24°C° 0 mm 2 mps 745 mmHg 60%
    19:00 +21°C° 0 mm 2 mps 745 mmHg 65%
    20:00 +20°C° 0 mm 2 mps 745 mmHg 67%
    21:00 +20°C° 0 mm 2 mps 746 mmHg 69%
    22:00 +20°C° 0 mm 1 mps 746 mmHg 71%
    23:00 +18°C° 0 mm 2 mps 746 mmHg 70%

    6 June, Saturday

    Time Temperature Precipitation Wind Pressure Humidity
    00:00 +18°C° 0 mm 2 mps 746 mmHg 68%
    01:00 +18°C° 0 mm 2 mps 746 mmHg 67%
    02:00 +19°C° 0 mm 2 mps 745 mmHg 64%
    03:00 +19°C° 0 mm 2 mps 745 mmHg 62%
    04:00 +19°C° 0 mm 2 mps 745 mmHg 59%
    05:00 +21°C° 0 mm 2 mps 745 mmHg 57%
    06:00 +24°C° 0 mm 2 mps 745 mmHg 55%
    07:00 +25°C° 0 mm 2 mps 745 mmHg 53%
    08:00 +27°C° 0 mm 3 mps 745 mmHg 48%
    09:00 +29°C° 0 mm 3 mps 745 mmHg 43%
    10:00 +32°C° 0 mm 4 mps 745 mmHg 38%
    11:00 +33°C° 0 mm 4 mps 744 mmHg 36%
    12:00 +33°C° 0 mm 4 mps 744 mmHg 33%
    13:00 +33°C° 0 mm 5 mps 743 mmHg 31%
    14:00 +32°C° 0.1 mm 5 mps 743 mmHg 33%
    15:00 +32°C° 0.1 mm 5 mps 743 mmHg 35%
    16:00 +30°C° 0.1 mm 5 mps 742 mmHg 37%
    17:00 +27°C° 0.7 mm 4 mps 742 mmHg 47%
    18:00 +25°C° 0.7 mm 3 mps 742 mmHg 58%
    19:00 +21°C° 0.7 mm 2 mps 742 mmHg 68%
    20:00 +20°C° 0.2 mm 2 mps 743 mmHg 69%
    21:00 +19°C° 0.2 mm 3 mps 743 mmHg 70%
    22:00 +19°C° 0.2 mm 3 mps 743 mmHg 71%
    23:00 +18°C° 0 mm 3 mps 743 mmHg 70%
    Show more